Regional Weather Roundup
Issued by NWS

Home | Current Version | Previous Version | Graphics & Text | Print | Product List | Glossary On
Versions: 1 2 3 4 5 6 7 8 9 10 11 12 13 14 15 16 17 18 19 20 21 22 23 24 25 26 27 28 29 30 31 32 33 34 35 36 37 38 39 40 41 42 43 44 45 46 47 48 49
000
ASUS43 KDMX 270407
RWRIA

WEATHER ROUNDUP FOR IOWA
NATIONAL WEATHER SERVICE DES MOINES IA
1100 PM CDT TUE MAY 26 2015

NOTE: "FAIR" INDICATES FEW OR NO CLOUDS BELOW 12,000 FEET WITH NO
SIGNIFICANT WEATHER AND/OR OBSTRUCTIONS TO VISIBILITY.

* - THESE STATIONS ARE NOT NWS STATIONS...THUS NOT UNDER NWS
QUALITY CONTROL.  THEY ALSO DO NOT REPORT WEATHER SUCH
AS PRECIPITATION OR FOG.

IAZ001>003-012>014-020>022-031>034-043>046-270500-
   NORTHWEST IOWA

CITY           SKY/WX    TMP DP  RH WIND       PRES   REMARKS
CARROLL *      CLOUDY    61  57  88 W6        29.89R
CHEROKEE *     MOCLDY    57  57 100 CALM      29.89R
DENISON *      MOCLDY    57  57 100 NW3       29.89R
LE MARS *      CLEAR     57  57 100 S3        29.91R
ORANGE CITY *  PTCLDY    57  55  94 CALM      29.90R
SHELDON *      CLOUDY    59  57  94 W7        29.88R
SIOUX CITY     PTCLDY    58  55  90 CALM      29.91R
SPENCER        CLOUDY    57  55  93 W3        29.88R
STORM LAKE *   CLOUDY    57  55  94 W6        29.90R
$$

IAZ055>058-069>071-079>083-090>094-270500-
   SOUTHWEST IOWA

CITY           SKY/WX    TMP DP  RH WIND       PRES   REMARKS
ATLANTIC *     CLOUDY    61  59  94 W6        29.92R
AUDUBON *      MOCLDY    61  55  82 W5        29.91R
COUNCIL BLFS * CLEAR     61  61 100 SW6       29.93R
CRESTON *      PTCLDY    59  59 100 W6        29.92R
HARLAN  *      MOCLDY    59  59 100 W3        29.95R
LAMONI         CLEAR     62  58  86 SW6       29.92R
RED OAK *      PTCLDY    59  57  94 CALM      29.92R
SHENANDOAH *   CLEAR     61  59  94 SW5       29.93R
$$

IAZ047>049-059>061-072>074-084-270500-
   CENTRAL IOWA

CITY           SKY/WX    TMP DP  RH WIND       PRES   REMARKS
AMES           CLOUDY    62  60  93 W6        29.87R
ANKENY *       CLOUDY    63  61  94 SW5       29.87R
CHARITON *     CLEAR     61  59  94 SW6       29.90R
DES MOINES     CLOUDY    63  59  87 W7        29.88R
GRINNELL*      PTCLDY    61  57  88 SW8       29.87R
KNOXVILLE *    MOCLDY    63  59  88 W9        29.87S
MARSHALLTOWN   CLOUDY    60  59  96 W6        29.85R
PELLA *        PTCLDY    61  61 100 SW5       29.89R
PERRY *        CLOUDY    61  58  90 NW6       29.88R
$$

IAZ004>006-015-016-023>025-035-036-270500-
   NORTH CENTRAL IOWA

CITY           SKY/WX    TMP DP  RH WIND       PRES   REMARKS
ALGONA *       CLOUDY    59  57  94 NW8       29.87R
CLARION *      CLOUDY    59 N/A N/A W6        29.86R
ESTHERVILLE    CLOUDY    56  55  97 NW5       29.87R
FORT DODGE *   CLOUDY    61  55  82 W3        29.88R
MASON CITY     CLOUDY    58  56  93 NW9       29.86R
FOREST CITY *  CLOUDY    55  55 100 NW7       29.86R
IOWA FALLS *   CLOUDY    61  59  94 W8        29.86R
$$

IAZ007>011-017>019-026>030-037>042-050>054-066-270500-
   NORTHEAST IOWA

CITY           SKY/WX    TMP DP  RH WIND       PRES   REMARKS
CEDAR RAPIDS   CLEAR     63  62  97 SW8       29.82R
CHARLES CITY * CLOUDY    61  61 100 W5        29.83R
CLINTON *      MOCLDY    63  59  88 S3        29.85R
DECORAH *      CLOUDY    59  59 100 CALM      29.80S
DUBUQUE        PTCLDY    60  58  92 W5        29.82R
MONTICELLO *   CLOUDY    64  64 100 CALM      29.82R
OELWEIN *      MOCLDY    59  59 100 W6        29.83S
WATERLOO       CLOUDY    61  59  93 W3        29.82R
$$

IAZ064-065-067-068-078-270500-
   EAST CENTRAL IOWA

CITY           SKY/WX    TMP DP  RH WIND       PRES   REMARKS
DAVENPORT      PTCLDY    65  60  84 SW8       29.84R
IOWA CITY      PTCLDY    64  61  90 SW9       29.85R
MT. PLEASANT * CLEAR     64  61  88 SW9       29.88R
MUSCATINE *    CLEAR     66  63  88 SW7       29.85R
QUAD CITIES    MOCLDY    65  61  87 W5        29.84R
$$

IAZ062-063-075>077-085>089-095>099-270500-
   SOUTHEAST IOWA

CITY           SKY/WX    TMP DP  RH WIND       PRES   REMARKS
BURLINGTON     PTCLDY    64  62  93 SW7       29.88R
FAIRFIELD *    CLEAR     64  59  82 W9G16     29.88R
FORT MADISON * PTCLDY    64  63  94 SW6       29.90R
KEOKUK *       CLOUDY    70  61  73 SW9       29.89R
OSKALOOSA *      N/A     63  59  88 W12       29.88R
CENTERVILLE *  CLEAR     63  63 100 SW7       29.92R
OTTUMWA        CLEAR     62  60  93 SW9       29.88R
WASHINGTON *   CLEAR     64  63  94 W9        29.88R
$$

ABBREVIATIONS USED IN REMARKS
   TC - TEMPERATURES IN CELSIUS
  WCI - WIND CHILL INDEX
   HX - HEAT INDEX
  VSB - VISIBILITY
$$




USA.gov is the U.S. government's official web portal to all federal, state and local government web resources and services.